Regional Weather Roundup
Issued by NWS Cleveland, OH

Home | Current Version | Previous Version | Text Only | Print | Product List | Glossary Off
Versions: 1 2 3 4 5 6 7 8 9 10 11 12 13 14 15 16 17 18 19 20 21 22 23 24 25 26 27 28 29 30 31 32 33 34 35 36 37 38 39 40 41 42 43 44 45 46 47 48 49 50

000
ASUS41 KCLE 270300
RWRCLE
OHIO REGIONAL WEATHER ROUNDUP
NATIONAL WEATHER SERVICE WILMINGTON, OH
1100 PM EDT MON JUN 26 2017

NOTE: "FAIR" INDICATES FEW OR NO CLOUDS BELOW 12,000 FEET WITH NO
SIGNIFICANT WEATHER AND/OR OBSTRUCTIONS TO VISIBILITY.

OHZ001>008-015>018-024>027-034-035-043-044-270400-
   NORTHWEST OHIO

CITY           SKY/WX    TMP DP  RH WIND       PRES   REMARKS
DEFIANCE       CLOUDY    57  51  80 VRB6      30.03R
FINDLAY        FAIR      56  50  80 SW8       30.01S
TOLEDO EXPRESS MOCLDY    56  54  93 W9        30.00R THUNDER
TOLEDO EXEC    MOCLDY    58  52  80 W9        30.02R
LIMA           FAIR      57  51  80 SW9       30.04R
$$

OHZ009>014-019>023-028>033-038-089-270400-
   NORTHEAST OHIO

CITY           SKY/WX    TMP DP  RH WIND       PRES   REMARKS
CLE-HOPKINS    LGT RAIN  57  51  80 S5        30.04S
CLE-LAKEFRONT  CLOUDY    59  50  72 S5        30.00F
CUY CO. ARPT   CLOUDY    57  52  82 W12       30.03R
LORAIN-ELYRIA  LGT RAIN  55  48  77 S7        30.02F
ASHTABULA      CLOUDY    60  48  64 W21G29    30.02R
AKRON-CANTON   MOCLDY    57  47  69 NW7       30.03R
WOOSTER        NOT AVBL
MANSFIELD      CLOUDY    56  49  77 W6        30.04F
YOUNGSTOWN     MOCLDY    52  50  93 CALM      30.01R
$$

OHZ042-051>053-060>062-070>072-077>081-270400-
  SOUTHWEST OHIO

CITY           SKY/WX    TMP DP  RH WIND       PRES   REMARKS
CINC-COVINGTON MOCLDY    64  49  57 W8        30.08R
CINC-LUNKEN    FAIR      67  49  52 W13       30.07R
HAMILTON       FAIR      56  54  93 W3        30.07R
DAYTON         NOT AVBL
WRIGHT-PAT AFB NOT AVBL
DAYTON GENERAL FAIR      60  48  64 N9        30.07R
WILMINGTON     FAIR      61  52  72 W6        30.06R
$$

OHZ036-037-039>041-045>050-054>059-063>069-073>076-082>088-270400-
  CENTRAL AND SOUTHEAST OHIO

CITY           SKY/WX    TMP DP  RH WIND       PRES   REMARKS
COLUMBUS       FAIR      58  55  90 CALM      30.04R
OSU AIRPORT    FAIR      58  51  78 N6        30.05R
BOLTON FIELD   NOT AVBL
RICKENBACK AFB NOT AVBL
NEWARK         FAIR      57  52  83 SW5       30.04R
MARION         CLOUDY    58  49  72 SW6       30.05S
LANCASTER      FAIR      58  54  86 SE6       30.05S
ZANESVILLE     MOCLDY    57  53  86 CALM      30.05F
NEW PHILLY     CLOUDY    64  49  57 VRB5      30.04R
$$




USA.gov is the U.S. government's official web portal to all federal, state and local government web resources and services.